Regional Weather Roundup
Issued by NWS Upton, NY

Current Version | Previous Version | Graphics & Text | Print | Product List | Glossary Off
Versions: 1 2 3 4 5 6 7 8 9 10 11 12 13 14 15 16 17 18 19 20 21 22 23 24 25 26 27

000
ASUS41 KOKX 262108
RWROKX

REGIONAL WEATHER ROUNDUP
NATIONAL WEATHER SERVICE NEW YORK NY
400 PM EST SUN FEB 26 2017

NOTE: "FAIR" INDICATES FEW OR NO CLOUDS BELOW 12,000 FEET WITH NO
SIGNIFICANT WEATHER AND/OR OBSTRUCTIONS TO VISIBILITY.

NYZ071-072-176-178-NJZ106-104-262200-
NEW YORK CITY METRO AREA

CITY           SKY/WX    TMP DP  RH WIND       PRES   REMARKS
Central Park   MOSUNNY   42  14  32 W10       30.07R
Wall St Helipt NOT AVBL
LaGuardia APRT MOSUNNY   45  15  30 W21G28    30.06R
Kennedy INTL   SUNNY     44  16  32 W21G28    30.07R
Breezy Point     N/A     39 N/A N/A W14G22      N/A  WCI  31
Newark/Liberty MOSUNNY   43  14  31 W18       30.07R
Teterboro      MOSUNNY   43  17  35 NW15G24   30.05R
$$

NYZ177-179-078>081-262200-
LONG ISLAND NEW YORK

CITY           SKY/WX    TMP DP  RH WIND       PRES   REMARKS
Jones Beach      N/A     41 N/A N/A W14G24      N/A
Matinecock PT  NOT AVBL
Farmingdale    SUNNY     42  15  33 NW13G24   30.04R
MacArthur/ISP  MOSUNNY   41  17  38 NW14G24   30.03R
Shirley        SUNNY     41  18  39 NW17G25   30.04R
Westhampton    SUNNY     41  16  36 W20G25    30.04R
Southampton    NOT AVBL
Bridgehampton  NOT AVBL
East Hampton     N/A     40  18  40 W13G24    30.01R WCI  33
Montauk          N/A     42  21  43 W14G23    30.00R
$$

NYZ052-065-067-262200-
HUDSON VALLEY

CITY           SKY/WX    TMP DP  RH WIND       PRES   REMARKS
White Plains   MOSUNNY   39  16  39 NW20G25   30.03R WCI  29
Newburgh       PTSUNNY   36  18  48 NW15G26   30.05R WCI  26
Montgomery     CLOUDY    37  18  46 NW10      30.05R WCI  30
Poughkeepsie   MOSUNNY   36  13  38 W13G24    30.04R WCI  27
Albany         PTSUNNY   34  16  47 W17       30.04R WCI  23
$$

NJZ001-105-106-008-010-013-015-019>022-104-262200-
NEW JERSEY

CITY           SKY/WX    TMP DP  RH WIND       PRES   REMARKS
Newark/Liberty MOSUNNY   43  14  31 W18       30.07R
Teterboro      MOSUNNY   43  17  35 NW15G24   30.05R
Caldwell       SUNNY     42  13  30 NW10G24   30.07R
Somerville     MOSUNNY   40  16  37 VRB7      30.08R
Linden         NOT AVBL
Sussex         MOSUNNY   39  15  37 NW9G23    30.06R WCI  33
Andover          N/A     39  15  37 VRB5      30.05R
Trenton        MOSUNNY   42  18  37 NW16      30.10R
Millville      SUNNY     43  20  39 NW17      30.13R
Atlantic City  SUNNY     44  15  31 W18G26    30.11R
Wrightstown    MOSUNNY   42  16  34 NW12G21   30.08R
Toms River     SUNNY     43  18  36 NW13G23   30.10R
Belmar         MOSUNNY   41  17  38 W16G25    30.09R
$$

PAZ047>061-062-071-262200-
EASTERN PENNSYLVANIA

CITY           SKY/WX    TMP DP  RH WIND       PRES   REMARKS
Philadelphia   MOSUNNY   43  15  32 W15G23    30.13R
Allentown      SUNNY     40  16  37 NW17G24   30.11R WCI  31
Scranton       CLOUDY    36  17  46 NW10G18   30.06R WCI  28
$$

CTZ002-004>006-009-010-012-RIZ004-006-007-MAZ004-011-015-262200-
SOUTHERN NEW ENGLAND
 IN CT

CITY           SKY/WX    TMP DP  RH WIND       PRES   REMARKS
Bradley INTL   PTSUNNY   37  16  42 NW20G25   30.01R WCI  27
Hartford       CLOUDY    40  17  39 NW12G22   30.02R WCI  33
Danbury        PTSUNNY   38  14  37 W13G23    30.03R WCI  30
Wtrbury/Oxford PTSUNNY   37  12  35 NW13G23   30.00R WCI  29
Bridgeport     MOSUNNY   43  15  32 NW15G25   30.03R
Meriden        MOSUNNY   42  15  33 NW13      30.01R
New Haven      MOSUNNY   40  17  39 NW14G22   30.02R WCI  32
Chester          N/A     39  14  35 W8G20     29.98R WCI  34
Groton         SUNNY     41  17  38 NW15G24   29.99R
Wilimantic     MOSUNNY   39  15  37 W14G24    29.99R WCI  31

 IN RI

CITY           SKY/WX    TMP DP  RH WIND       PRES   REMARKS
Providence     MOSUNNY   41  12  30 NW17G26   29.95R
Block Island   SUNNY     41  21  44 NW16G24   29.98R
Westerly       SUNNY     42  15  33 NW13G21   29.98R
 IN MA

CITY           SKY/WX    TMP DP  RH WIND       PRES   REMARKS
Boston         MOSUNNY   42  14  32 W20G26    29.91R
Worcester      SUNNY     33  11  39 W20G32    29.91R WCI  21
Westfield      CLOUDY    36  15  42 NW20G28   29.99R WCI  25
Provincetown   SUNNY     43  25  49 W15G23    29.90R
Nantucket      SUNNY     42  22  44 W17G29    29.93R
$$

ANZ330-335-338-340-345-350-353-355-262200-
COASTAL MARINE OBSERVATIONS


STATION/POSITION TIME  SKY/WX   TEMP    WIND        PRES    VSBY  WAVE
                                AIR SEA DIR/SP/G                  HT/PER
                 (UTC)          (F)     (DEG/KT/KT) (MB)    (MI)  (FT/S)
NY HARB ENTRANCE 1950            40 43  290/ 17/ 19 1017.1          3/10
20 S FIRE ISLAND 2050            40 43  290/ 17/ 21 1017.3          5/10
GREAT SOUTH BAY  NOT AVBL
23 SSW MONTAUK P 1950            40 44              1015.6          5/10
15 E BARNEGAT LI 2030               44                N/A           4/10
HUDSON CANYON    1950               47              1017.4          6/ 6
KINGS POINT      2036            40 41              1017.1
EXECUTION ROCKS  NOT AVBL
CENTRAL LI SOUND 2015            40     270/ 16/ 19   N/A           3/ 4
EASTERN LI SOUND NOT AVBL
ROBBINS REEF     2036            40     280/ 16/ 24 1017.9
$$


>>>>>>>>>>>>>>>>>>>>>>>>>>>> KEY <<<<<<<<<<<<<<<<<<<<<<<<<<<
>                                                          <
>     SKY/WX - Sky Condition/Present Weather               <
>     TMP    - Temperature in Fahrenheit                   <
>     DP     - Dew Point in Fahrenheit                     <
>     RH     - Relative Humidity in Percent                <
>     WIND   - Direction (from) and Speed in MPH           <
>     PRES   - Mean Sea Level Pressure (inches of Hg)      <
>     WCI    - Wind Chill Index                            <
>     VSB    - VISIBILITY IN MILES                         <
>     HX     - HEAT INDEX                                  <
>     TC     - TEMPERATURE IN CELSIUS                      <
>     VRB    - VARIABLE WIND DIRECTION                     <
>                                                          <
>>>>>>>>>>>>>>>>>>>>>>>>>>>> KEY <<<<<<<<<<<<<<<<<<<<<<<<<<<




USA.gov is the U.S. government's official web portal to all federal, state and local government web resources and services.